Theta_e
346 344 338 329 313 310 307 313 320 318 317 326 328 325 322 324 319 311 337 341 344 343 345 348 352 351 349 349 348 348 346 347 348 348 348 347 347 348 348 348 348 348 348 347 349 350 351 350 350
339 339 329 320 308 302 306 314 316 320 323 327 327 326 323 319 328 333 333 342 344 343 342 344 349 348 347 347 345 345 344 343 343 342 343 342 341 341 341 342 342 343 344 345 344 345 347 348 347
335 335 318 313 310 303 305 316 317 321 327 326 323 329 326 323 330 332 338 342 342 342 343 344 346 345 345 344 342 341 340 340 339 338 338 337 335 336 335 335 334 332 332 333 337 339 339 341 343
330 324 320 308 306 312 313 319 321 322 325 327 325 321 330 337 332 337 341 342 341 342 341 344 344 342 342 341 339 338 338 337 337 336 335 333 333 333 332 332 331 331 332 331 331 332 333 334 336
327 319 308 306 307 315 319 322 322 321 322 323 324 319 323 335 339 339 339 341 339 335 336 337 342 340 339 338 336 335 334 334 336 333 332 332 331 331 331 331 331 331 332 332 331 330 329 330 330
315 316 305 302 309 316 320 323 324 322 323 322 321 320 319 337 335 337 339 336 335 333 333 334 340 339 336 335 334 333 332 333 330 329 329 329 329 330 331 331 332 332 332 332 332 332 332 332 331
315 308 304 309 310 312 317 323 319 320 320 321 325 316 322 332 335 337 335 333 332 332 331 329 330 334 334 333 332 331 331 331 329 329 331 332 332 330 332 332 332 333 333 333 333 333 334 333 332
317 313 310 308 310 308 320 323 325 325 322 329 328 316 316 327 336 336 330 328 326 327 327 326 326 327 327 326 334 331 330 330 329 329 331 328 327 329 331 332 331 333 331 332 332 332 332 332 332
320 307 304 306 309 311 321 320 327 328 323 326 327 325 327 334 336 325 321 319 319 322 321 321 320 319 325 325 327 329 334 331 332 330 328 319 319 321 321 328 329 329 329 328 329 329 330 328 325
314 306 309 315 314 313 320 322 324 322 322 320 321 329 332 333 330 321 318 316 316 318 318 316 315 317 321 322 315 318 320 324 323 322 318 316 316 321 321 323 326 326 328 327 327 326 326 322 317
313 307 316 317 320 319 320 321 326 321 316 320 318 324 329 328 323 320 319 315 314 317 316 316 316 319 318 317 314 316 320 320 321 320 317 316 316 315 315 315 316 316 321 316 316 315 316 316 316
313 317 317 319 323 320 319 323 321 322 320 326 324 328 320 319 317 317 315 312 313 315 317 316 317 317 315 315 315 315 314 315 318 318 318 314 314 315 314 313 315 315 316 314 313 313 315 317 317
313 316 318 320 320 321 325 321 321 318 318 317 321 322 317 315 313 314 314 314 314 314 317 317 319 318 318 318 315 316 316 314 314 315 316 314 314 314 313 313 314 314 315 314 314 313 315 316 316
314 316 316 316 321 323 321 320 322 319 317 315 317 317 316 314 315 316 314 314 314 316 318 320 320 320 319 319 316 316 317 316 313 315 315 314 313 312 313 313 314 313 315 315 313 313 316 316 314
315 312 312 314 317 320 323 316 317 319 317 313 313 314 314 314 316 315 316 316 317 317 319 318 319 318 317 317 318 317 317 318 316 315 315 316 314 313 314 313 313 313 314 315 313 314 315 315 314
309 309 303 309 315 321 319 308 320 319 316 313 312 313 314 314 314 316 318 318 317 316 317 316 321 322 318 318 318 318 318 318 318 318 317 317 316 314 314 312 313 314 313 313 313 313 314 313 313
304 297 302 309 316 319 316 310 320 321 318 314 313 313 313 313 315 316 318 318 318 317 316 316 316 316 320 321 319 318 319 319 320 322 318 316 317 316 313 313 314 315 311 312 313 314 313 312 313
297 301 303 305 311 316 312 311 319 320 319 317 314 314 314 314 315 317 318 318 318 318 317 316 315 316 319 320 320 321 320 320 319 316 315 317 316 317 315 314 314 314 313 312 312 312 312 312 313
302 303 303 307 312 308 309 312 318 319 318 317 316 315 315 316 319 320 320 320 319 318 317 317 317 317 317 320 320 318 317 317 317 317 317 317 317 317 316 314 313 314 312 313 313 312 312 312 312
306 303 303 307 311 307 309 311 317 320 318 318 317 317 317 318 318 320 320 320 319 318 318 317 317 317 318 319 318 317 316 316 317 317 318 318 317 316 315 314 314 314 312 312 312 311 311 311 312
303 303 303 303 312 313 310 306 312 319 321 320 320 320 319 318 318 319 320 320 320 318 318 319 318 318 319 319 318 317 316 315 314 315 315 317 317 317 316 316 314 313 313 312 312 311 310 310 311
299 307 307 308 303 297 307 294 305 310 314 317 317 318 318 319 320 320 320 319 319 319 320 320 320 320 319 318 317 316 314 312 313 313 315 316 317 316 317 317 316 315 314 312 312 313 312 310 310
303 307 305 304 300 298 300 296 299 305 306 309 314 316 315 319 319 319 319 319 320 321 321 320 320 319 319 318 317 315 313 312 313 312 311 313 314 315 317 318 317 316 314 314 313 312 311 310 311
310 305 300 295 293 287 294 297 296 300 305 308 310 310 314 314 315 316 318 319 319 319 318 318 317 317 316 316 314 312 311 311 310 310 309 310 312 313 315 316 315 316 314 313 313 313 311 310 310
304 297 292 290 289 289 298 295 299 305 308 309 307 309 311 313 314 314 314 315 316 316 318 317 316 315 314 313 313 313 312 311 310 309 309 310 310 311 313 314 314 314 315 314 314 312 311 311 310
301 300 293 286 286 290 299 294 299 307 310 310 308 310 308 311 312 312 314 316 316 317 315 315 315 314 312 312 312 313 312 311 311 310 310 309 309 311 313 314 315 314 314 314 314 312 313 312 312
301 296 299 291 288 286 290 297 304 309 309 309 306 306 306 309 308 307 310 312 315 311 309 313 312 311 311 309 310 312 313 311 310 310 309 308 309 311 313 314 315 315 314 314 313 313 313 312 312
303 302 294 292 285 283 288 294 295 301 305 308 305 303 305 305 306 307 309 310 307 305 306 307 307 308 307 308 310 311 310 311 311 309 308 308 309 310 310 311 312 314 315 314 314 313 313 311 311
298 295 294 292 291 286 284 289 301 302 305 306 306 303 304 303 305 304 305 304 301 301 302 303 303 304 307 306 307 306 308 307 306 307 307 308 309 310 310 312 312 313 314 314 313 313 313 312 312
301 299 296 290 289 289 287 288 301 303 303 305 304 303 304 302 302 302 300 299 300 301 302 303 304 304 304 305 305 306 307 305 305 305 307 308 308 310 310 311 312 313 313 313 313 313 314 313 312
Wind_Speed
5 2 1 4 4 6 2 2 2 1 1 1 2 4 6 5 2 1 3 3 7 6 5 6 11 11 10 10 11 11 10 11 10 10 11 11 12 12 12 12 12 12 12 11 13 14 13 11 11
4 3 4 2 6 5 1 2 3 1 5 7 6 4 4 3 4 7 7 3 6 6 5 5 10 10 10 10 10 9 10 9 9 9 10 10 11 11 11 11 12 12 12 11 10 11 12 11 10
3 2 3 4 3 3 3 3 2 4 5 2 4 5 3 3 3 6 3 8 6 5 5 5 9 9 10 9 9 8 7 7 7 8 9 9 10 10 10 10 11 11 11 10 9 9 9 10 11
2 5 5 6 4 1 1 4 4 6 4 5 3 5 3 3 5 5 8 8 6 5 4 7 9 8 8 8 7 6 5 5 6 7 7 8 8 8 8 9 9 11 12 11 9 9 9 9 9
4 3 6 4 3 3 1 5 6 3 3 3 1 3 3 3 6 9 8 7 6 5 4 4 8 7 7 7 5 4 4 4 5 6 6 7 7 7 6 8 8 10 12 12 11 9 8 9 9
4 3 6 2 3 1 3 5 4 2 2 2 5 3 1 4 7 7 6 5 5 5 4 3 5 5 5 5 5 4 4 4 5 5 6 6 5 5 7 7 9 10 11 12 11 10 9 9 9
6 5 5 3 1 2 4 6 4 4 4 2 6 4 1 5 5 6 5 6 5 5 4 3 3 2 2 3 3 3 2 4 4 4 6 8 5 4 8 7 8 12 10 12 13 10 10 8 8
5 5 2 1 1 1 5 3 6 2 3 5 4 4 5 5 9 6 5 5 5 3 3 1 1 2 2 3 5 2 1 2 3 3 5 5 7 6 6 7 7 10 6 10 9 10 12 9 7
3 5 2 3 4 2 5 5 2 2 6 2 1 5 3 14 10 6 4 3 3 2 1 1 1 2 2 1 3 4 5 2 5 4 5 5 3 3 5 5 7 8 7 6 7 10 10 11 11
4 4 7 5 4 4 6 4 6 3 3 0 3 4 12 13 9 8 6 5 4 3 2 2 1 1 3 1 3 4 2 0 1 1 1 1 2 2 3 5 7 8 7 5 8 11 10 8 4
2 4 4 5 6 8 8 4 3 7 3 5 6 8 12 11 6 7 6 6 7 5 3 4 2 2 4 3 1 2 1 1 2 3 1 2 2 2 2 1 2 3 5 2 5 5 4 6 4
2 4 4 4 2 7 9 8 4 1 3 3 11 14 9 10 8 8 7 5 5 6 6 6 4 3 3 2 2 1 1 0 1 3 3 1 2 2 3 2 2 2 0 2 2 2 3 4 3
2 3 5 6 1 7 8 4 6 2 2 9 12 9 9 8 7 5 8 7 7 7 6 6 4 4 3 2 2 1 0 1 2 2 4 3 3 3 3 3 2 2 2 1 2 3 3 3 4
3 1 2 5 6 4 6 4 3 4 6 8 10 11 10 11 11 6 7 8 8 6 6 5 5 5 4 2 1 2 1 2 3 3 4 5 4 4 4 3 3 3 2 1 2 3 2 3 3
1 2 5 1 3 3 7 2 5 6 8 10 8 8 9 10 8 11 10 8 9 5 5 7 6 5 4 3 3 2 3 3 3 4 5 6 6 6 5 3 4 3 2 3 2 3 2 3 3
4 4 2 2 8 4 4 8 3 12 12 11 9 9 9 8 9 6 6 6 6 4 6 6 4 3 5 5 3 3 4 3 3 4 4 6 6 6 4 3 4 3 2 2 3 2 2 3 3
4 3 4 7 6 5 6 6 7 10 11 10 10 11 8 7 8 8 8 7 7 8 7 7 6 6 6 5 4 4 5 4 4 4 3 5 6 5 5 4 5 3 3 3 2 2 2 2 4
6 5 6 6 7 8 8 9 7 10 10 9 8 5 7 8 14 8 9 8 8 7 7 7 6 6 5 4 4 3 3 4 3 4 3 5 4 6 6 4 5 3 3 3 3 3 1 3 3
5 6 8 3 5 4 10 6 11 12 8 7 6 6 8 9 7 6 7 7 7 7 7 8 5 6 4 2 3 3 3 2 3 3 6 5 5 5 5 4 4 3 4 4 3 2 2 2 1
5 3 6 3 2 2 3 4 7 11 13 8 6 6 10 5 4 5 6 6 7 6 8 7 7 7 5 2 2 2 2 3 3 3 5 6 6 5 5 5 5 5 4 5 4 4 2 2 2
4 5 5 4 4 2 5 5 6 6 10 7 7 9 7 9 10 7 7 7 6 7 8 6 7 6 4 5 3 2 2 2 2 2 3 3 4 6 7 7 6 6 5 5 4 4 5 3 2
5 8 4 6 4 4 2 5 5 6 9 13 10 10 8 11 8 6 8 6 8 7 6 6 6 5 5 5 3 3 2 2 2 3 3 6 7 8 6 7 8 7 4 6 5 4 4 3 4
10 4 5 4 4 3 1 2 6 1 6 10 11 10 9 11 8 7 7 7 6 6 5 5 6 5 4 4 4 3 3 3 3 3 5 5 6 6 8 5 5 7 5 5 6 4 5 4 3
3 4 6 5 5 1 4 5 7 5 6 4 6 6 6 5 4 5 5 6 5 4 5 5 3 2 3 3 3 4 5 5 4 5 4 4 4 6 7 8 6 7 6 7 6 7 6 6 5
7 6 4 3 3 6 4 3 10 5 7 6 7 7 7 6 6 6 6 5 4 6 5 3 5 7 7 4 4 4 5 6 6 6 4 6 5 5 7 5 6 5 5 5 5 5 6 6 4
6 8 7 6 4 5 3 6 6 5 6 5 6 5 5 5 6 6 7 7 8 7 7 7 6 8 4 3 6 5 6 4 5 5 4 4 3 6 8 8 6 6 5 5 9 5 5 5 6
3 4 4 5 2 2 3 6 7 1 2 2 6 5 6 7 7 7 6 6 7 7 8 8 9 7 3 5 5 5 5 5 6 7 4 5 6 5 8 8 8 7 7 9 10 7 5 4 5
2 4 2 3 3 5 3 4 6 5 8 7 7 8 8 6 5 5 6 6 7 5 4 4 4 4 4 4 4 4 6 6 5 5 7 8 8 6 8 10 9 9 10 10 7 5 4 4 5
4 2 6 4 4 3 2 7 7 9 10 10 10 9 8 6 6 5 5 2 3 3 2 2 3 3 3 4 4 5 6 7 6 5 6 7 7 8 9 9 10 10 8 6 6 5 4 6 5
1 1 4 6 5 1 3 9 2 6 7 7 7 8 6 5 6 3 2 1 1 1 0 2 1 3 4 4 5 5 6 6 6 6 6 7 9 9 9 10 11 9 7 5 6 5 5 6 6
Wind_Direction
139 178 54 50 65 65 51 58 344 53 92 23 46 118 122 34 46 152 98 92 107 90 90 89 99 92 84 83 82 73 73 71 70 70 68 64 61 56 56 51 47 42 35 29 24 21 25 20 23
136 149 45 77 75 72 262 280 246 211 136 119 86 107 56 92 101 115 124 136 114 108 104 99 100 99 97 91 87 85 79 78 76 70 67 59 56 52 49 47 43 39 30 23 22 23 12 5 9
163 48 73 85 105 105 138 208 113 117 162 50 93 40 67 90 75 135 122 134 122 118 119 128 115 113 110 102 93 87 85 85 80 74 69 59 49 46 40 38 33 27 23 11 7 9 5 355 354
12 10 30 70 47 359 60 156 131 126 89 65 105 68 74 344 149 138 136 129 125 131 126 126 120 115 108 101 99 96 87 79 63 58 58 52 47 47 40 34 32 23 20 10 356 349 345 341 343
29 55 59 65 346 289 113 132 147 155 111 115 140 146 88 46 92 125 128 135 135 139 123 113 122 114 111 105 100 93 81 69 58 44 39 36 32 29 26 21 10 9 8 8 10 4 349 340 332
37 87 55 69 329 338 66 134 135 70 89 131 80 90 66 114 129 134 130 131 117 122 100 40 107 106 103 88 81 72 63 65 62 52 42 29 10 357 354 352 348 343 347 351 353 354 353 350 345
110 80 158 148 199 139 155 139 149 150 132 136 136 88 31 149 121 126 126 114 103 111 108 75 64 58 83 97 89 85 68 78 78 57 41 28 8 343 351 326 336 325 324 333 336 338 335 329 342
101 87 78 346 162 203 148 97 128 116 85 111 144 177 198 176 142 125 121 103 108 106 100 122 11 358 14 15 358 352 337 61 71 43 32 25 31 29 30 26 350 348 344 342 343 18 9 356 350
103 67 141 187 167 199 162 128 38 35 128 65 61 142 168 132 132 112 104 91 111 141 174 311 298 278 228 239 282 327 312 1 38 32 37 36 27 26 40 23 23 17 3 344 4 5 10 20 11
85 103 203 196 184 196 172 129 139 138 153 154 46 43 119 134 146 152 161 169 176 173 224 186 53 90 152 59 7 329 253 28 18 11 65 358 345 317 41 18 12 8 353 348 9 358 358 6 349
183 162 203 239 210 171 150 112 119 131 251 208 185 140 138 142 150 166 181 183 193 193 180 193 173 133 133 119 45 30 50 333 319 283 243 296 341 341 349 6 350 344 358 17 12 357 347 338 338
132 188 192 250 104 145 147 134 114 246 306 189 139 148 135 152 171 187 188 170 181 181 187 194 201 191 149 145 114 84 113 78 282 266 265 233 269 306 309 306 301 317 288 28 14 347 318 323 354
255 179 193 299 342 97 98 102 145 90 90 103 123 132 144 153 172 184 169 179 183 192 192 196 191 215 182 154 151 222 294 207 258 274 252 214 246 257 264 269 273 307 316 19 345 341 336 341 340
317 345 40 14 75 68 111 161 134 186 161 129 146 154 170 171 184 150 173 190 193 198 187 195 202 203 211 199 231 258 220 220 219 245 251 220 224 235 243 254 258 275 277 293 314 304 310 309 318
61 22 337 187 136 129 124 275 224 150 167 160 170 176 178 185 177 193 191 190 189 194 184 201 218 227 229 238 246 265 277 273 264 252 244 238 223 227 244 272 285 258 272 286 283 291 295 297 303
81 64 358 252 156 172 131 259 201 174 166 182 173 191 184 190 196 205 207 211 207 192 199 219 241 246 247 254 268 262 263 259 268 272 249 243 229 222 229 245 252 268 271 285 290 277 268 272 280
4 230 205 319 176 137 170 260 184 183 186 192 189 196 190 204 223 213 212 214 220 213 214 230 240 247 261 279 273 243 251 256 255 268 265 258 242 227 215 223 250 256 256 264 260 261 242 281 294
206 223 224 215 200 180 196 250 171 193 199 217 213 182 197 205 229 206 200 204 215 228 229 226 227 235 254 269 273 268 273 265 260 258 263 275 250 239 218 226 242 239 253 252 241 252 265 257 272
204 204 220 198 189 134 212 229 190 198 211 223 233 203 220 219 237 197 206 206 204 216 224 227 238 243 210 246 281 307 280 298 271 279 278 287 272 249 223 221 239 230 233 238 221 239 254 280 256
201 220 241 214 61 156 106 299 218 209 222 222 228 237 238 242 251 244 233 203 209 211 227 232 239 254 239 196 222 217 230 266 256 273 279 273 271 257 235 221 229 227 236 235 226 202 224 241 229
230 199 235 216 113 119 135 279 210 212 216 224 243 229 230 222 233 228 222 209 206 223 226 224 235 254 255 224 213 234 229 291 290 277 275 271 286 277 240 236 221 223 211 234 221 202 195 225 261
254 210 218 132 116 237 15 268 243 209 207 221 227 232 222 222 229 213 212 216 208 223 219 221 231 238 233 201 197 205 230 280 239 258 284 290 281 281 266 245 243 227 208 222 222 195 215 180 224
233 204 205 140 130 91 250 86 263 37 248 229 223 227 232 227 205 232 225 207 208 201 205 215 212 216 190 187 197 216 260 225 273 270 278 291 296 286 281 257 258 251 220 226 212 201 207 206 205
90 70 46 60 99 198 204 152 280 206 221 213 214 223 229 203 184 153 136 135 147 150 176 174 175 232 233 222 211 234 256 290 298 292 304 297 292 290 273 266 242 245 225 219 208 211 210 208 212
68 58 318 331 348 238 165 126 245 252 245 239 193 203 201 174 161 146 145 146 162 185 180 193 217 238 231 229 247 245 252 255 259 273 280 296 300 303 296 265 258 256 253 251 256 209 212 198 199
187 159 167 232 230 271 181 236 259 238 270 233 191 176 168 172 179 179 186 188 180 201 208 216 227 250 258 285 279 272 259 256 265 267 275 277 269 280 285 283 260 259 236 253 259 242 227 192 215
193 188 173 127 34 68 251 294 299 281 296 198 176 167 199 207 191 190 202 202 200 198 217 212 223 237 271 287 291 288 283 280 288 305 287 273 277 274 283 276 264 247 234 216 227 228 224 203 219
175 158 19 10 287 289 305 283 249 249 239 217 205 204 210 202 196 214 207 201 229 236 280 322 343 275 291 300 285 290 297 292 288 281 282 293 285 282 288 286 279 256 232 220 223 220 203 215 227
5 10 55 114 131 194 292 264 218 224 217 208 211 202 201 201 213 224 227 249 359 357 326 291 296 328 321 313 305 313 309 305 297 277 287 289 291 294 288 284 284 269 251 224 211 221 215 218 241
9 5 139 120 261 124 158 271 323 286 280 240 193 189 188 203 198 214 322 284 236 221 149 33 340 337 320 317 328 308 298 289 291 293 296 301 301 300 288 287 286 267 245 234 218 217 224 218 236